Location: Walnut Point State Park
(39.6958°N, 88.0345°W)
Time: 14:01:24
(UTC-05:00)

Amateur Radio Satellites - All Passes

Search period start: 04 July 2015 13:31
Search period end: 05 July 2015 13:31
Location: Walnut Point State Park, 39.6958°N, 88.0345°W

Satellite Date Start Highest point End Downlink Frequencies (MHz)
Time Altitude Azimuth
ESTCUBE 1 04 Jul 13:31:52 13:34:49 17° 294° (WNW) 13:37:35 437.505/2401.250
RS-15 04 Jul 13:34:39 13:44:50 34° 253° (WSW) 13:54:55 29.354- 29.394
VERMONT LUNAR 04 Jul 13:42:18 13:43:41 12° 213° (SSW) 13:45:00 437.305
BEESAT 04 Jul 13:48:32 13:52:11 22° 93° (E) 13:55:57 436.000
PHONESAT 2.4 04 Jul 13:56:39 13:59:58 44° 202° (SSW) 14:03:17 2401.200-2431.200
AO-7 04 Jul 13:58:14 14:03:09 18° 52° (NE) 14:08:26 29.400- 29.500
SWISSCUBE 04 Jul 14:03:37 14:07:59 34° 97° (E) 14:12:21 437.505
ITUPSAT 1 04 Jul 14:08:52 14:13:15 35° 97° (E) 14:17:39 437.325
SPROUT 04 Jul 14:20:55 14:23:47 17° 293° (WNW) 14:26:30 437.525
Oscar 19 04 Jul 14:21:31 14:26:06 32° 264° (W) 14:30:39 437.125/150
YUBILEINY 04 Jul 14:21:34 14:30:05 54° 76° (ENE) 14:38:40 435.215
Gurwin Techsat 1B 04 Jul 14:25:26 14:30:45 80° 76° (ENE) 14:36:06 435.225
ITAMSAT 1 04 Jul 14:31:59 14:37:12 89° 104° (ESE) 14:42:29 435.822/435.867
JAS-2 04 Jul 14:37:50 14:42:00 26° 66° (ENE) 14:46:26 435.910
Cosmos 2491 04 Jul 14:42:03 14:49:48 38° 87° (E) 14:57:45 435.465 / 435.565
ISS 04 Jul 14:50:45 14:54:00 74° 37° (NE) 14:57:13 145.825
BEESAT 3 04 Jul 14:52:07 14:52:59 11° 39° (NE) 14:54:01 437.485
HORYU 2 04 Jul 15:02:21 15:05:50 24° 68° (ENE) 15:09:26 437.375
KKS-1 04 Jul 15:03:49 15:07:12 22° 94° (E) 15:10:41 437.445
BEESAT 2 04 Jul 15:03:57 15:05:10 11° 39° (NE) 15:06:32 435.950
PCSat 04 Jul 15:19:30 15:24:23 37° 111° (ESE) 15:29:22 145.827
BEESAT 04 Jul 15:25:43 15:30:10 37° 289° (WNW) 15:34:33 436.000
PHONESAT 2.4 04 Jul 15:36:48 15:37:30 10° 215° (SW) 15:38:04 2401.200-2431.200
SWISSCUBE 04 Jul 15:41:45 15:45:41 25° 292° (WNW) 15:49:29 437.505
AO-7 04 Jul 15:46:28 15:54:48 78° 70° (ENE) 16:03:11 29.400- 29.500
ITUPSAT 1 04 Jul 15:47:04 15:50:59 25° 293° (WNW) 15:54:47 437.325
STARS 04 Jul 15:55:17 15:59:31 48° 99° (E) 16:03:46 437.465
SO-50 04 Jul 16:01:42 16:05:05 21° 111° (ESE) 16:08:42 436.795
AIST 1 04 Jul 16:05:38 16:10:02 74° 278° (W) 16:14:27
O/OREOS (USA 219) 04 Jul 16:08:20 16:09:50 12° 51° (NE) 16:11:34 437.305
Gurwin Techsat 1B 04 Jul 16:09:30 16:11:29 12° 273° (W) 16:13:04 435.225
YUBILEINY 04 Jul 16:19:05 16:26:34 32° 275° (W) 16:33:51 435.215
Cosmos 2504 04 Jul 16:20:17 16:26:54 33° 73° (ENE) 16:34:04 435.465 / 435.565
AIST 2 04 Jul 16:21:19 16:24:05 17° 44° (NE) 16:26:56 435.215
JAS-2 04 Jul 16:22:21 16:27:03 35° 264° (W) 16:31:53 435.910
BEESAT 3 04 Jul 16:27:34 16:31:39 85° 57° (ENE) 16:35:39 437.485
ISS 04 Jul 16:29:07 16:30:01 11° 231° (SW) 16:30:46 145.825
Cosmos 2491 04 Jul 16:38:08 16:46:34 46° 286° (WNW) 16:54:55 435.465 / 435.565
HORYU 2 04 Jul 16:38:29 16:42:22 30° 264° (W) 16:46:14 437.375
BEESAT 2 04 Jul 16:39:48 16:43:55 89° 33° (NNE) 16:47:56 435.950
KKS-1 04 Jul 16:39:57 16:43:55 32° 290° (WNW) 16:47:49 437.445
MOZHAYETS 4 04 Jul 16:57:06 17:01:26 38° 97° (E) 17:05:47
PCSat 04 Jul 17:03:02 17:07:52 31° 309° (NW) 17:12:40 145.827
CUTE-I 04 Jul 17:09:14 17:12:52 19° 64° (ENE) 17:16:41 437.470
STARS 04 Jul 17:32:59 17:35:37 15° 294° (WNW) 17:38:06 437.465
SO-50 04 Jul 17:40:46 17:45:20 46° 308° (NW) 17:50:03 436.795
Cubesat XI-IV 04 Jul 17:41:59 17:46:52 38° 70° (ENE) 17:51:50 437.490
AO-7 04 Jul 17:42:22 17:48:33 21° 270° (W) 17:54:21 29.400- 29.500
O/OREOS (USA 219) 04 Jul 17:45:23 17:49:55 78° 249° (WSW) 17:54:27 437.305
JUGNU 04 Jul 17:49:58 17:50:31 10° 177° (S) 17:51:05 437.505
AIST 2 04 Jul 17:58:54 18:03:00 53° 243° (WSW) 18:07:02 435.215
Cosmos 2504 04 Jul 18:12:09 18:19:17 46° 269° (W) 18:26:50 435.465 / 435.565
BRITE-PL 04 Jul 18:30:53 18:33:07 13° 65° (ENE) 18:35:34 437.365/2234.400
MOZHAYETS 4 04 Jul 18:34:55 18:38:26 21° 292° (WNW) 18:41:50
CUTE-I 04 Jul 18:47:18 18:52:33 56° 260° (W) 18:57:51 437.470
GONETS M04 04 Jul 18:58:46 19:04:54 22° 63° (ENE) 19:11:24
CUBESAT XI-V 04 Jul 19:00:54 19:05:35 66° 101° (E) 19:10:11 437.345
DANDE 04 Jul 19:09:15 19:11:48 32° 75° (ENE) 19:14:12 436.750
PRISM 04 Jul 19:11:30 19:14:50 23° 94° (E) 19:18:11 437.425
Cubesat XI-IV 04 Jul 19:22:33 19:27:05 27° 266° (W) 19:31:33 437.490
GOMX 1 04 Jul 19:40:58 19:45:35 35° 72° (ENE) 19:50:00 467.674
CUSAT 1 04 Jul 19:46:46 19:48:56 23° 265° (W) 19:51:05 437.405
HO-68 04 Jul 19:48:11 19:54:40 40° 66° (ENE) 20:01:16 435.675
STRAND 1 04 Jul 19:59:41 20:04:52 82° 103° (ESE) 20:10:01 437.568
SEEDS 04 Jul 19:59:56 20:02:59 21° 69° (ENE) 20:06:11 437.485
BRITE-PL 04 Jul 20:05:37 20:11:08 83° 257° (WSW) 20:16:21 437.365/2234.400
AAUSAT CUBESAT 2 04 Jul 20:10:47 20:13:36 18° 68° (ENE) 20:16:32 437.432
CUBEBUG 2 04 Jul 20:21:58 20:22:49 11° 65° (ENE) 20:23:54 437.445
DOVE 4 04 Jul 20:23:52 20:28:40 58° 75° (ENE) 20:33:13 437.250
Oscar 11 04 Jul 20:30:04 20:32:19 14° 66° (ENE) 20:34:45 145.826/435.025
SRMSAT 04 Jul 20:30:49 20:31:06 10° 182° (S) 20:31:22 437.500
COMPASS 1 04 Jul 20:35:53 20:39:46 41° 73° (ENE) 20:43:42 437.405
CUBESAT XI-V 04 Jul 20:40:13 20:42:31 13° 296° (WNW) 20:44:34 437.345
CUTE 1.7 + AOD 2 04 Jul 20:46:22 20:50:35 88° 78° (ENE) 20:54:50 437.475
PRISM 04 Jul 20:46:38 20:50:16 28° 290° (WNW) 20:53:48 437.425
CANX-2 04 Jul 20:49:47 20:53:59 76° 258° (WSW) 20:58:14 2200.000
GONETS M04 04 Jul 20:54:11 21:02:54 78° 264° (W) 21:11:33
Cosmos 2499 04 Jul 20:55:38 21:01:45 25° 68° (ENE) 21:08:29 435.465 / 435.565
FUNcube-1 04 Jul 20:57:35 21:00:02 16° 67° (ENE) 21:02:38 145.935
CINEMA 3 04 Jul 21:08:03 21:12:35 78° 77° (ENE) 21:16:56 145.822/145.860
UWE-3 04 Jul 21:09:32 21:13:09 28° 71° (ENE) 21:16:46 435.000/436.395/437.385
AUBIESAT-1 04 Jul 21:16:45 21:20:39 34° 102° (ESE) 21:24:49 437.475
GOMX 1 04 Jul 21:19:27 21:23:46 26° 266° (W) 21:27:46 467.674
SEEDS 04 Jul 21:34:53 21:38:37 31° 264° (W) 21:42:21 437.485
HO-68 04 Jul 21:35:50 21:42:26 38° 263° (W) 21:48:58 435.675
STRAND 1 04 Jul 21:41:10 21:43:27 13° 299° (WNW) 21:45:28 437.568
DX 1 04 Jul 21:41:50 21:44:58 20° 67° (ENE) 21:48:13 434.975-435.025
AAUSAT CUBESAT 2 04 Jul 21:45:11 21:48:58 34° 263° (W) 21:52:47 437.432
M-CUBED/EXP-1 PRIME 04 Jul 21:51:01 21:55:17 85° 288° (WNW) 21:59:51 437.505
CUBEBUG 2 04 Jul 21:54:47 21:59:04 67° 259° (WSW) 22:03:16 437.445
ZACube-1 04 Jul 21:55:46 21:59:59 75° 76° (ENE) 22:04:09 437.345
DELFI C3 04 Jul 21:58:22 22:02:22 83° 258° (WSW) 22:06:25 145.870
UKube-1 04 Jul 22:01:38 22:05:21 29° 70° (ENE) 22:09:09 .
50 SAT 04 Jul 22:03:29 22:06:00 17° 69° (ENE) 22:08:37 437.505
Oscar 11 04 Jul 22:03:57 22:08:07 50° 261° (W) 22:12:19 145.826/435.025
DOVE 4 04 Jul 22:04:11 22:06:47 14° 270° (W) 22:09:04 437.250
HUMSAT D 04 Jul 22:12:21 22:16:16 46° 74° (ENE) 22:20:13 437.325/437.525
COMPASS 1 04 Jul 22:13:10 22:15:41 15° 269° (W) 22:18:02 437.405
AISAT 04 Jul 22:19:54 22:23:42 29° 70° (ENE) 22:27:34 437.250
ANTELSAT 04 Jul 22:20:59 22:23:07 14° 90° (E) 22:25:31 437.575/2403.000
FUNcube-1 04 Jul 22:32:05 22:36:05 41° 262° (W) 22:40:02 145.935
TIGRISAT 04 Jul 22:32:33 22:35:28 18° 92° (E) 22:38:34 435.000
CUBEBUG 1 04 Jul 22:37:08 22:40:35 23° 69° (ENE) 22:44:07 437.445
UWE-3 04 Jul 22:46:19 22:49:43 22° 266° (W) 22:52:58 435.000/436.395/437.385
Cosmos 2499 04 Jul 22:47:43 22:55:32 66° 266° (W) 23:03:53 435.465 / 435.565
AUBIESAT-1 04 Jul 22:51:51 22:55:14 23° 295° (WNW) 22:58:42 437.475
ESTCUBE 1 04 Jul 22:52:40 22:56:53 40° 72° (ENE) 23:01:09 437.505/2401.250
GONETS M04 04 Jul 22:54:26 22:58:28 13° 282° (WNW) 23:01:51
VELOX 1 04 Jul 23:08:18 23:12:47 88° 257° (WSW) 23:17:16 145.980
UNISAT 6 04 Jul 23:11:24 23:15:41 50° 99° (E) 23:20:03 437.425
QB50P2 04 Jul 23:14:45 23:17:57 21° 93° (E) 23:21:15 145.880/145.840
POPSAT HIP 1 04 Jul 23:15:25 23:18:35 21° 93° (E) 23:21:49 437.405
DX 1 04 Jul 23:16:56 23:21:00 36° 263° (W) 23:25:03 434.975-435.025
50 SAT 04 Jul 23:36:59 23:40:25 31° 263° (W) 23:43:50 437.505
SPROUT 04 Jul 23:37:28 23:41:09 29° 70° (ENE) 23:44:54 437.525
UKube-1 04 Jul 23:37:57 23:41:30 23° 266° (W) 23:44:57 .
HUMSAT D 04 Jul 23:50:22 23:52:21 13° 270° (W) 23:54:06 437.325/437.525
QB50P1 04 Jul 23:53:39 23:57:49 59° 100° (E) 00:01:59 145.935-145.965
ANTELSAT 04 Jul 23:55:58 00:00:15 51° 286° (WNW) 00:04:36 437.575/2403.000
AISAT 04 Jul 23:56:30 00:00:16 25° 265° (W) 00:03:57 437.250
NANOSAT C BR1 05 Jul 00:07:42 00:11:55 86° 103° (ESE) 00:16:06 145.865
PCSat 05 Jul 00:08:05 00:12:38 27° 49° (NE) 00:17:14 145.827
TIGRISAT 05 Jul 00:08:18 00:12:24 39° 288° (WNW) 00:16:32 435.000
CUBEBUG 1 05 Jul 00:12:49 00:16:48 31° 264° (W) 00:20:45 437.445
DUCHIFAT 1 05 Jul 00:14:30 00:18:43 81° 284° (WNW) 00:22:53 145.980
TISAT 1 05 Jul 00:17:04 00:21:11 52° 74° (ENE) 00:25:20 437.305
POLYITAN 1 05 Jul 00:20:08 00:24:19 66° 286° (WNW) 00:28:29 437.675
BUGSAT 1 05 Jul 00:29:48 00:33:52 82° 285° (WNW) 00:37:53 437.445
ESTCUBE 1 05 Jul 00:30:42 00:33:57 19° 268° (W) 00:37:04 437.505/2401.250
SO-50 05 Jul 00:33:14 00:36:46 20° 42° (NE) 00:40:23 436.795
UNISAT 6 05 Jul 00:49:30 00:52:08 15° 293° (WNW) 00:54:36 437.425
QB50P2 05 Jul 00:50:11 00:53:53 30° 289° (WNW) 00:57:32 145.880/145.840
POPSAT HIP 1 05 Jul 00:50:47 00:54:30 30° 289° (WNW) 00:58:09 437.405
Cosmos 2491 05 Jul 00:54:11 00:59:16 17° 60° (ENE) 01:04:51 435.465 / 435.565
BEESAT 05 Jul 00:54:24 00:58:08 24° 68° (ENE) 01:01:59 436.000
Oscar 19 05 Jul 00:58:06 00:58:06 10° 86° (E) 00:58:30 437.125/150
SWISSCUBE 05 Jul 01:09:22 01:13:43 36° 70° (ENE) 01:18:07 437.505
SPROUT 05 Jul 01:13:44 01:17:15 23° 266° (W) 01:20:40 437.525
ITUPSAT 1 05 Jul 01:14:53 01:19:14 37° 70° (ENE) 01:23:41 437.325
QB50P1 05 Jul 01:31:33 01:33:14 12° 295° (WNW) 01:34:43 145.935-145.965
RS-15 05 Jul 01:44:17 01:54:21 47° 111° (ESE) 02:04:49 29.354- 29.394
PCSat 05 Jul 01:51:06 01:56:16 44° 248° (WSW) 02:01:21 145.827
TISAT 1 05 Jul 01:55:27 01:57:20 12° 270° (W) 01:58:59 437.305
KKS-1 05 Jul 02:01:40 02:04:46 19° 67° (ENE) 02:07:59 437.445
SO-50 05 Jul 02:12:54 02:17:49 65° 241° (WSW) 02:22:37 436.795
AIST 1 05 Jul 02:14:14 02:17:47 24° 73° (ENE) 02:21:22
BEESAT 05 Jul 02:31:26 02:35:49 35° 263° (W) 02:40:12 436.000
Oscar 19 05 Jul 02:33:05 02:38:14 85° 281° (W) 02:43:23 437.125/150
Gurwin Techsat 1B 05 Jul 02:42:49 02:47:36 34° 96° (E) 02:52:26 435.225
ITAMSAT 1 05 Jul 02:46:02 02:50:44 34° 96° (E) 02:55:27 435.822/435.867
SWISSCUBE 05 Jul 02:47:53 02:51:41 23° 267° (W) 02:55:24 437.505
Cosmos 2491 05 Jul 02:48:56 02:57:45 86° 84° (E) 03:06:27 435.465 / 435.565
STARS 05 Jul 02:51:21 02:55:25 38° 72° (ENE) 02:59:31 437.465
ITUPSAT 1 05 Jul 02:53:29 02:57:15 22° 267° (W) 03:00:57 437.325
YUBILEINY 05 Jul 03:21:06 03:29:36 64° 92° (E) 03:38:11 435.215
JAS-2 05 Jul 03:29:47 03:35:42 32° 95° (E) 03:42:18 435.910
KKS-1 05 Jul 03:36:58 03:41:10 39° 262° (W) 03:45:20 437.445
AO-7 05 Jul 03:49:57 03:56:36 27° 93° (E) 04:03:28 29.400- 29.500
AIST 1 05 Jul 03:51:46 03:55:24 25° 270° (W) 03:58:54
RS-15 05 Jul 03:56:08 04:06:43 51° 313° (NW) 04:17:38 29.354- 29.394
MOZHAYETS 4 05 Jul 03:58:20 04:02:24 33° 71° (ENE) 04:06:32
Oscar 19 05 Jul 04:15:42 04:16:54 11° 300° (WNW) 04:17:46 437.125/150
Gurwin Techsat 1B 05 Jul 04:22:55 04:27:31 29° 292° (WNW) 04:32:01 435.225
ITAMSAT 1 05 Jul 04:25:40 04:30:09 29° 292° (WNW) 04:34:30 435.822/435.867
STARS 05 Jul 04:28:57 04:32:03 18° 268° (W) 04:34:59 437.465
HORYU 2 05 Jul 04:29:43 04:34:06 53° 100° (E) 04:38:29 437.375
Cosmos 2491 05 Jul 04:48:01 04:53:35 18° 280° (W) 04:58:39 435.465 / 435.565
Cosmos 2504 05 Jul 04:52:07 04:57:03 22° 85° (E) 05:02:13 435.465 / 435.565
JAS-2 05 Jul 05:14:32 05:20:53 47° 289° (WNW) 05:27:50 435.910
YUBILEINY 05 Jul 05:19:58 05:27:11 27° 293° (WNW) 05:34:08 435.215
MOZHAYETS 4 05 Jul 05:36:02 05:39:42 23° 267° (W) 05:43:17
STRAND 1 05 Jul 05:38:52 05:41:11 14° 62° (ENE) 05:43:47 437.568
AO-7 05 Jul 05:41:45 05:50:02 66° 292° (WNW) 05:58:14 29.400- 29.500
Cubesat XI-IV 05 Jul 06:01:16 06:04:18 16° 89° (E) 06:07:34 437.490
PRISM 05 Jul 06:01:33 06:04:05 16° 66° (ENE) 06:06:47 437.425
CUBESAT XI-V 05 Jul 06:03:10 06:07:47 57° 74° (ENE) 06:12:27 437.345
HORYU 2 05 Jul 06:07:46 06:10:21 15° 295° (WNW) 06:12:46 437.375
RS-15 05 Jul 06:14:47 06:22:49 21° 345° (NNW) 06:30:53 29.354- 29.394
VERMONT LUNAR 05 Jul 06:16:09 06:17:22 12° 147° (SSE) 06:18:39 437.305
O/OREOS (USA 219) 05 Jul 06:20:19 06:22:11 13° 100° (E) 06:24:17 437.305
BEESAT 3 05 Jul 06:20:24 06:23:10 18° 112° (ESE) 06:26:06 437.485
BEESAT 2 05 Jul 06:33:23 06:36:21 20° 112° (ESE) 06:39:27 435.950
DANDE 05 Jul 06:38:37 06:39:59 11° 90° (E) 06:41:48 436.750
Cosmos 2504 05 Jul 06:41:58 06:48:46 56° 282° (WNW) 06:55:34 435.465 / 435.565
CUTE-I 05 Jul 07:05:08 07:10:28 63° 101° (E) 07:15:46 437.470
CUSAT 1 05 Jul 07:08:30 07:13:43 27° 95° (E) 07:18:06 437.405
STRAND 1 05 Jul 07:14:40 07:19:49 77° 257° (WSW) 07:25:00 437.568
ISS 05 Jul 07:29:12 07:32:09 33° 136° (SE) 07:35:08 145.825
PRISM 05 Jul 07:35:16 07:39:13 41° 261° (W) 07:43:13 437.425
AO-7 05 Jul 07:37:05 07:41:25 15° 311° (NW) 07:45:19 29.400- 29.500
Cubesat XI-IV 05 Jul 07:39:36 07:44:56 63° 287° (WNW) 07:50:12 437.490
CUBESAT XI-V 05 Jul 07:43:09 07:45:40 14° 271° (W) 07:47:57 437.345
VERMONT LUNAR 05 Jul 07:50:50 07:53:52 51° 161° (SSE) 07:56:55 437.305
AIST 2 05 Jul 07:55:48 07:59:44 38° 116° (ESE) 08:03:43 435.215
O/OREOS (USA 219) 05 Jul 07:56:48 08:01:10 55° 295° (WNW) 08:05:34 437.305
BEESAT 3 05 Jul 07:57:03 08:00:53 38° 307° (NW) 08:04:45 437.485
GONETS M04 05 Jul 07:59:38 08:06:09 25° 83° (E) 08:13:00
AUBIESAT-1 05 Jul 08:04:42 08:07:38 30° 67° (ENE) 08:10:44 437.475
BEESAT 2 05 Jul 08:10:24 08:14:12 36° 308° (NW) 08:18:03 435.950
BRITE-PL 05 Jul 08:12:23 08:16:06 29° 95° (E) 08:19:45 437.365/2234.400
DANDE 05 Jul 08:15:40 08:23:01 80° 99° (E) 08:28:38 436.750
PHONESAT 2.4 05 Jul 08:19:46 08:22:26 22° 151° (SSE) 08:25:09 2401.200-2431.200
DOVE 4 05 Jul 08:25:21 08:27:25 14° 90° (E) 08:29:41 437.250
RS-15 05 Jul 08:32:29 08:40:54 23° 20° (NNE) 08:49:50 29.354- 29.394
CUTE 1.7 + AOD 2 05 Jul 08:33:32 08:36:08 16° 91° (E) 08:38:56 437.475
CANX-2 05 Jul 08:36:38 08:39:43 20° 92° (E) 08:42:56 2200.000
M-CUBED/EXP-1 PRIME 05 Jul 08:39:25 08:42:42 69° 254° (WSW) 08:46:07 437.505
CUTE-I 05 Jul 08:46:35 08:50:04 17° 297° (WNW) 08:53:20 437.470
CUSAT 1 05 Jul 08:50:20 08:56:17 38° 282° (WNW) 09:00:54 437.405
HO-68 05 Jul 09:03:41 09:10:26 44° 98° (E) 09:17:14 435.675
CINEMA 3 05 Jul 09:04:35 09:07:20 17° 92° (E) 09:10:16 145.822/145.860
ISS 05 Jul 09:05:41 09:08:34 28° 332° (NNW) 09:11:26 145.825
SEEDS 05 Jul 09:19:25 09:23:29 43° 98° (E) 09:27:34 437.485
ANTELSAT 05 Jul 09:20:49 09:22:01 11° 65° (ENE) 09:23:29 437.575/2403.000
GOMX 1 05 Jul 09:21:25 09:25:37 75° 284° (WNW) 09:29:45 467.674
VERMONT LUNAR 05 Jul 09:27:38 09:30:45 74° 359° (N) 09:33:53 437.305
AAUSAT CUBESAT 2 05 Jul 09:28:33 09:32:26 36° 97° (E) 09:36:21 437.432
TIGRISAT 05 Jul 09:31:40 09:33:55 15° 66° (ENE) 09:36:20 435.000
Cosmos 2499 05 Jul 09:34:36 09:38:27 16° 82° (E) 09:42:42 435.465 / 435.565
AIST 2 05 Jul 09:35:01 09:38:27 22° 313° (NW) 09:41:48 435.215
DELFI C3 05 Jul 09:39:42 09:41:48 14° 90° (E) 09:44:05 145.870
AUBIESAT-1 05 Jul 09:40:58 09:42:37 13° 264° (W) 09:44:09 437.475
ZACube-1 05 Jul 09:46:19 09:48:39 15° 91° (E) 09:51:10 437.345
CUBEBUG 2 05 Jul 09:46:50 09:50:18 25° 95° (E) 09:53:53 437.445
BRITE-PL 05 Jul 09:51:15 09:54:32 21° 292° (WNW) 09:57:38 437.365/2234.400
Oscar 11 05 Jul 09:52:11 09:56:00 30° 96° (E) 09:59:52 145.826/435.025
GONETS M04 05 Jul 09:53:37 10:02:23 67° 281° (W) 10:11:05
COMPASS 1 05 Jul 09:55:10 09:59:26 90° 216° (SW) 10:03:39 437.405
PHONESAT 2.4 05 Jul 09:56:44 10:00:09 75° 166° (SSE) 10:03:36 2401.200-2431.200
DOVE 4 05 Jul 10:01:34 10:05:30 42° 287° (WNW) 10:09:26 437.250
DANDE 05 Jul 10:02:25 10:06:26 16° 290° (WNW) 10:09:39 436.750
QB50P2 05 Jul 10:07:43 10:10:13 16° 67° (ENE) 10:12:53 145.880/145.840
CUTE 1.7 + AOD 2 05 Jul 10:08:14 10:12:17 41° 287° (WNW) 10:16:18 437.475
POPSAT HIP 1 05 Jul 10:08:17 10:10:44 16° 67° (ENE) 10:13:20 437.405
UNISAT 6 05 Jul 10:09:51 10:13:49 39° 72° (ENE) 10:17:49 437.425
CANX-2 05 Jul 10:11:52 10:15:46 33° 288° (WNW) 10:19:37 2200.000
FUNcube-1 05 Jul 10:20:51 10:24:45 35° 97° (E) 10:28:43 145.935
UWE-3 05 Jul 10:35:32 10:39:46 72° 102° (ESE) 10:44:04 435.000/436.395/437.385
CINEMA 3 05 Jul 10:40:52 10:44:43 35° 287° (WNW) 10:48:34 145.822/145.860
ISS 05 Jul 10:44:44 10:45:48 11° 352° (N) 10:46:50 145.825
RS-15 05 Jul 10:45:17 10:56:44 58° 49° (NE) 11:08:41 29.354- 29.394
QB50P1 05 Jul 10:45:31 10:49:27 39° 73° (ENE) 10:53:26 145.935-145.965
HO-68 05 Jul 10:51:40 10:58:03 35° 296° (WNW) 11:04:20 435.675
ANTELSAT 05 Jul 10:54:05 10:58:21 64° 259° (W) 11:02:36 437.575/2403.000
SEEDS 05 Jul 10:56:16 10:58:58 16° 293° (WNW) 11:01:31 437.485
NANOSAT C BR1 05 Jul 10:59:08 11:03:17 56° 74° (ENE) 11:07:27 145.865
VELOX 1 05 Jul 11:00:38 11:03:39 18° 92° (E) 11:06:48 145.980
VERMONT LUNAR 05 Jul 11:04:35 11:07:43 75° 194° (SSW) 11:10:52 437.305
AAUSAT CUBESAT 2 05 Jul 11:04:50 11:07:48 18° 292° (WNW) 11:10:38 437.432
DUCHIFAT 1 05 Jul 11:05:42 11:09:54 66° 75° (ENE) 11:14:06 145.980
DX 1 05 Jul 11:05:49 11:09:54 38° 98° (E) 11:13:57 434.975-435.025
TIGRISAT 05 Jul 11:06:11 11:10:20 48° 261° (W) 11:14:28 435.000
POLYITAN 1 05 Jul 11:11:56 11:16:11 83° 77° (ENE) 11:20:26 437.675
50 SAT 05 Jul 11:13:11 11:16:34 28° 96° (E) 11:20:01 437.505
DELFI C3 05 Jul 11:13:16 11:17:08 42° 287° (WNW) 11:20:59 145.870
BUGSAT 1 05 Jul 11:18:34 11:22:44 61° 75° (ENE) 11:26:54 437.445
ZACube-1 05 Jul 11:21:14 11:25:16 44° 287° (WNW) 11:29:21 437.345
CUBEBUG 2 05 Jul 11:23:25 11:26:58 26° 289° (WNW) 11:30:30 437.445
Cosmos 2499 05 Jul 11:23:44 11:30:47 76° 279° (W) 11:37:58 435.465 / 435.565
UKube-1 05 Jul 11:25:11 11:29:27 59° 100° (E) 11:33:43 .
Oscar 11 05 Jul 11:28:35 11:32:04 23° 291° (WNW) 11:35:27 145.826/435.025
HUMSAT D 05 Jul 11:32:19 11:36:29 79° 284° (WNW) 11:40:41 437.325/437.525
PHONESAT 2.4 05 Jul 11:34:46 11:38:13 76° 2° (N) 11:41:42 2401.200-2431.200
QB50P2 05 Jul 11:41:44 11:45:48 43° 261° (W) 11:49:52 145.880/145.840
POPSAT HIP 1 05 Jul 11:42:12 11:46:17 44° 261° (W) 11:50:21 437.405
AISAT 05 Jul 11:47:03 11:51:26 64° 101° (ESE) 11:55:47 437.250
UNISAT 6 05 Jul 11:47:58 11:50:49 17° 268° (W) 11:53:30 437.425
GONETS M04 05 Jul 11:57:49 12:01:24 12° 305° (NW) 12:04:17
FUNcube-1 05 Jul 11:57:50 12:00:52 19° 292° (WNW) 12:03:50 145.935
CUBEBUG 1 05 Jul 12:02:00 12:06:14 48° 99° (E) 12:10:25 437.445
Oscar 19 05 Jul 12:12:29 12:15:22 16° 63° (ENE) 12:18:27 437.125/150
UWE-3 05 Jul 12:15:23 12:15:49 10° 295° (WNW) 12:15:59 435.000/436.395/437.385
ISS 05 Jul 12:21:53 12:23:19 12° 12° (NNE) 12:24:47 145.825
ESTCUBE 1 05 Jul 12:22:30 12:27:04 83° 284° (WNW) 12:31:35 437.505/2401.250
QB50P1 05 Jul 12:22:45 12:25:32 16° 268° (W) 12:28:09 145.935-145.965
VELOX 1 05 Jul 12:36:17 12:40:23 38° 289° (WNW) 12:44:26 145.980
NANOSAT C BR1 05 Jul 12:38:00 12:39:32 11° 271° (W) 12:40:49 145.865
VERMONT LUNAR 05 Jul 12:41:56 12:44:21 20° 209° (SSW) 12:46:45 437.305
DX 1 05 Jul 12:42:49 12:45:53 19° 293° (WNW) 12:48:49 434.975-435.025
50 SAT 05 Jul 12:48:08 12:51:03 20° 291° (WNW) 12:53:53 437.505
BUGSAT 1 05 Jul 12:57:38 12:58:40 11° 271° (W) 12:59:25 437.445
RS-15 05 Jul 12:58:07 13:09:05 45° 250° (WSW) 13:20:09 29.354- 29.394
SPROUT 05 Jul 13:00:09 13:04:23 63° 100° (E) 13:08:37 437.525
UKube-1 05 Jul 13:03:09 13:05:09 13° 296° (WNW) 13:06:57 .
PHONESAT 2.4 05 Jul 13:12:50 13:16:13 54° 200° (SSW) 13:19:37 2401.200-2431.200
Cosmos 2499 05 Jul 13:23:16 13:25:33 11° 302° (WNW) 13:27:19 435.465 / 435.565
AISAT 05 Jul 13:25:39 13:27:31 12° 296° (WNW) 13:29:11 437.250
